Year,Month,Day,Hour,Minute,Value (Times are PST for temperature in C)
2006,09,30,00,00,9.50
2006,09,30,00,01,9.50
2006,09,30,00,02,9.50
2006,09,30,00,03,9.40
2006,09,30,00,04,9.40
2006,09,30,00,05,9.40
2006,09,30,00,06,9.40
2006,09,30,00,07,9.40
2006,09,30,00,08,9.30
2006,09,30,00,09,9.30
2006,09,30,00,10,9.30
2006,09,30,00,11,9.30
2006,09,30,00,12,9.30
2006,09,30,00,13,9.20
2006,09,30,00,14,9.20
2006,09,30,00,15,9.20
2006,09,30,00,16,9.20
2006,09,30,00,17,9.20
2006,09,30,00,18,9.20
2006,09,30,00,19,9.20
2006,09,30,00,20,9.10
2006,09,30,00,21,9.10
2006,09,30,00,22,9.10
2006,09,30,00,23,9.10
2006,09,30,00,24,9.00
2006,09,30,00,25,9.00
2006,09,30,00,26,9.10
2006,09,30,00,27,9.10
2006,09,30,00,28,9.10
2006,09,30,00,29,9.10
2006,09,30,00,30,9.00
2006,09,30,00,31,9.00
2006,09,30,00,32,9.00
2006,09,30,00,33,9.00
2006,09,30,00,34,8.90
2006,09,30,00,35,8.90
2006,09,30,00,36,8.90
2006,09,30,00,37,8.90
2006,09,30,00,38,8.90
2006,09,30,00,39,8.90
2006,09,30,00,40,8.90
2006,09,30,00,41,8.90
2006,09,30,00,42,8.90
2006,09,30,00,43,8.90
2006,09,30,00,44,8.90
2006,09,30,00,45,8.90
2006,09,30,00,46,8.90
2006,09,30,00,47,9.00
2006,09,30,00,48,9.00
2006,09,30,00,49,9.00
2006,09,30,00,50,9.00
2006,09,30,00,51,8.90
2006,09,30,00,52,8.90
2006,09,30,00,53,8.90
2006,09,30,00,54,8.90
2006,09,30,00,55,8.90
2006,09,30,00,56,8.90
2006,09,30,00,57,8.90
2006,09,30,00,58,8.90
2006,09,30,00,59,8.90
2006,09,30,01,00,8.90
2006,09,30,01,01,8.90
2006,09,30,01,02,8.90
2006,09,30,01,03,8.90
2006,09,30,01,04,8.90
2006,09,30,01,05,8.90
2006,09,30,01,06,9.00
2006,09,30,01,07,9.00
2006,09,30,01,08,9.00
2006,09,30,01,09,9.00
2006,09,30,01,10,9.00
2006,09,30,01,11,9.00
2006,09,30,01,12,9.00
2006,09,30,01,13,9.00
2006,09,30,01,14,9.10
2006,09,30,01,15,9.10
2006,09,30,01,16,9.10
2006,09,30,01,17,9.10
2006,09,30,01,18,9.10
2006,09,30,01,19,9.10
2006,09,30,01,20,9.10
2006,09,30,01,21,9.10
2006,09,30,01,22,9.10
2006,09,30,01,23,9.10
2006,09,30,01,24,9.10
2006,09,30,01,25,9.10
2006,09,30,01,26,9.10
2006,09,30,01,27,9.10
2006,09,30,01,28,9.20
2006,09,30,01,29,9.20
2006,09,30,01,30,9.20
2006,09,30,01,31,9.20
2006,09,30,01,32,9.20
2006,09,30,01,33,9.20
2006,09,30,01,34,9.20
2006,09,30,01,35,9.20
2006,09,30,01,36,9.20
2006,09,30,01,37,9.20
2006,09,30,01,38,9.20
2006,09,30,01,39,9.20
2006,09,30,01,40,9.20
2006,09,30,01,41,9.20
2006,09,30,01,42,9.20
2006,09,30,01,43,9.20
2006,09,30,01,44,9.20
2006,09,30,01,45,9.20
2006,09,30,01,46,9.20
2006,09,30,01,47,9.20
2006,09,30,01,48,9.20
2006,09,30,01,49,9.20
2006,09,30,01,50,9.20
2006,09,30,01,51,9.20
2006,09,30,01,52,9.20
2006,09,30,01,53,9.20
2006,09,30,01,54,9.20
2006,09,30,01,55,9.20
2006,09,30,01,56,9.20
2006,09,30,01,57,9.20
2006,09,30,01,58,9.20
2006,09,30,01,59,9.20
2006,09,30,02,00,9.20
2006,09,30,02,01,9.20
2006,09,30,02,02,9.20
2006,09,30,02,03,9.20
2006,09,30,02,04,9.20
2006,09,30,02,05,9.20
2006,09,30,02,06,9.20
2006,09,30,02,07,9.20
2006,09,30,02,08,9.20
2006,09,30,02,09,9.20
2006,09,30,02,10,9.20
2006,09,30,02,11,9.20
2006,09,30,02,12,9.20
2006,09,30,02,13,9.20
2006,09,30,02,14,9.20
2006,09,30,02,15,9.20
2006,09,30,02,16,9.20
2006,09,30,02,17,9.20
2006,09,30,02,18,9.20
2006,09,30,02,19,9.20
2006,09,30,02,20,9.20
2006,09,30,02,21,9.20
2006,09,30,02,22,9.20
2006,09,30,02,23,9.20
2006,09,30,02,24,9.20
2006,09,30,02,25,9.20
2006,09,30,02,26,9.20
2006,09,30,02,27,9.20
2006,09,30,02,28,9.20
2006,09,30,02,29,9.20
2006,09,30,02,30,9.20
2006,09,30,02,31,9.20
2006,09,30,02,32,9.20
2006,09,30,02,33,9.20
2006,09,30,02,34,9.20
2006,09,30,02,35,9.20
2006,09,30,02,36,9.20
2006,09,30,02,37,9.20
2006,09,30,02,38,9.20
2006,09,30,02,39,9.20
2006,09,30,02,40,9.20
2006,09,30,02,41,9.20
2006,09,30,02,42,9.20
2006,09,30,02,43,9.20
2006,09,30,02,44,9.20
2006,09,30,02,45,9.20
2006,09,30,02,46,9.20
2006,09,30,02,47,9.20
2006,09,30,02,48,9.20
2006,09,30,02,49,9.20
2006,09,30,02,50,9.20
2006,09,30,02,51,9.30
2006,09,30,02,52,9.30
2006,09,30,02,53,9.30
2006,09,30,02,54,9.30
2006,09,30,02,55,9.30
2006,09,30,02,56,9.40
2006,09,30,02,57,9.40
2006,09,30,02,58,9.40
2006,09,30,02,59,9.40
2006,09,30,03,00,9.50
2006,09,30,03,01,9.50
2006,09,30,03,02,9.50
2006,09,30,03,03,9.60
2006,09,30,03,04,9.60
2006,09,30,03,05,9.60
2006,09,30,03,06,9.70
2006,09,30,03,07,9.70
2006,09,30,03,08,9.70
2006,09,30,03,09,9.70
2006,09,30,03,10,9.70
2006,09,30,03,11,9.70
2006,09,30,03,12,9.80
2006,09,30,03,13,9.80
2006,09,30,03,14,9.90
2006,09,30,03,15,9.90
2006,09,30,03,16,9.90
2006,09,30,03,17,10.00
2006,09,30,03,18,10.10
2006,09,30,03,19,10.10
2006,09,30,03,20,10.10
2006,09,30,03,21,10.20
2006,09,30,03,22,10.20
2006,09,30,03,23,10.20
2006,09,30,03,24,10.20
2006,09,30,03,25,10.20
2006,09,30,03,26,10.20
2006,09,30,03,27,10.20
2006,09,30,03,28,10.30
2006,09,30,03,29,10.30
2006,09,30,03,30,10.40
2006,09,30,03,31,10.40
2006,09,30,03,32,10.40
2006,09,30,03,33,10.40
2006,09,30,03,34,10.50
2006,09,30,03,35,10.60
2006,09,30,03,36,10.60
2006,09,30,03,37,10.60
2006,09,30,03,38,10.70
2006,09,30,03,39,10.70
2006,09,30,03,40,10.70
2006,09,30,03,41,10.70
2006,09,30,03,42,10.80
2006,09,30,03,43,10.80
2006,09,30,03,44,10.90
2006,09,30,03,45,10.90
2006,09,30,03,46,10.90
2006,09,30,03,47,10.90
2006,09,30,03,48,11.00
2006,09,30,03,49,11.10
2006,09,30,03,50,11.10
2006,09,30,03,51,11.10
2006,09,30,03,52,11.10
2006,09,30,03,53,11.10
2006,09,30,03,54,11.20
2006,09,30,03,55,11.20
2006,09,30,03,56,11.20
2006,09,30,03,57,11.20
2006,09,30,03,58,11.30
2006,09,30,03,59,11.30
2006,09,30,04,00,11.30
2006,09,30,04,01,11.30
2006,09,30,04,02,11.30
2006,09,30,04,03,11.30
2006,09,30,04,04,11.30
2006,09,30,04,05,11.30
2006,09,30,04,06,11.30
2006,09,30,04,07,11.30
2006,09,30,04,08,11.30
2006,09,30,04,09,11.30
2006,09,30,04,10,11.30
2006,09,30,04,11,11.30
2006,09,30,04,12,11.30
2006,09,30,04,13,11.30
2006,09,30,04,14,11.30
2006,09,30,04,15,11.30
2006,09,30,04,16,11.30
2006,09,30,04,17,11.30
2006,09,30,04,18,11.30
2006,09,30,04,19,11.30
2006,09,30,04,20,11.30
2006,09,30,04,21,11.30
2006,09,30,04,22,11.30
2006,09,30,04,23,11.30
2006,09,30,04,24,11.40
2006,09,30,04,25,11.40
2006,09,30,04,26,11.40
2006,09,30,04,27,11.40
2006,09,30,04,28,11.40
2006,09,30,04,29,11.40
2006,09,30,04,30,11.30
2006,09,30,04,31,11.30
2006,09,30,04,32,11.30
2006,09,30,04,33,11.30
2006,09,30,04,34,11.30
2006,09,30,04,35,11.30
2006,09,30,04,36,11.30
2006,09,30,04,37,11.30
2006,09,30,04,38,11.20
2006,09,30,04,39,11.20
2006,09,30,04,40,11.20
2006,09,30,04,41,11.20
2006,09,30,04,42,11.10
2006,09,30,04,43,11.10
2006,09,30,04,44,11.10
2006,09,30,04,45,11.10
2006,09,30,04,46,11.10
2006,09,30,04,47,11.10
2006,09,30,04,48,11.00
2006,09,30,04,49,10.90
2006,09,30,04,50,10.90
2006,09,30,04,51,10.90
2006,09,30,04,52,10.90
2006,09,30,04,53,10.90
2006,09,30,04,54,10.80
2006,09,30,04,55,10.80
2006,09,30,04,56,10.70
2006,09,30,04,57,10.70
2006,09,30,04,58,10.70
2006,09,30,04,59,10.60
2006,09,30,05,00,10.60
2006,09,30,05,01,10.60
2006,09,30,05,02,10.60
2006,09,30,05,03,10.60
2006,09,30,05,04,10.60
2006,09,30,05,05,10.50
2006,09,30,05,06,10.40
2006,09,30,05,07,10.40
2006,09,30,05,08,10.40
2006,09,30,05,09,10.30
2006,09,30,05,10,10.30
2006,09,30,05,11,10.30
2006,09,30,05,12,10.20
2006,09,30,05,13,10.20
2006,09,30,05,14,10.10
2006,09,30,05,15,10.10
2006,09,30,05,16,10.10
2006,09,30,05,17,10.10
2006,09,30,05,18,10.10
2006,09,30,05,19,10.10
2006,09,30,05,20,10.00
2006,09,30,05,21,9.90
2006,09,30,05,22,9.90
2006,09,30,05,23,9.90
2006,09,30,05,24,9.90
2006,09,30,05,25,9.80
2006,09,30,05,26,9.80
2006,09,30,05,27,9.80
2006,09,30,05,28,9.70
2006,09,30,05,29,9.70
2006,09,30,05,30,9.70
2006,09,30,05,31,9.70
2006,09,30,05,32,9.70
2006,09,30,05,33,9.60
2006,09,30,05,34,9.60
2006,09,30,05,35,9.60
2006,09,30,05,36,9.50
2006,09,30,05,37,9.50
2006,09,30,05,38,9.50
2006,09,30,05,39,9.40
2006,09,30,05,40,9.40
2006,09,30,05,41,9.40
2006,09,30,05,42,9.30
2006,09,30,05,43,9.30
2006,09,30,05,44,9.30
2006,09,30,05,45,9.20
2006,09,30,05,46,9.20
2006,09,30,05,47,9.20
2006,09,30,05,48,9.20
2006,09,30,05,49,9.20
2006,09,30,05,50,9.20
2006,09,30,05,51,9.20
2006,09,30,05,52,9.10
2006,09,30,05,53,9.10
2006,09,30,05,54,9.10
2006,09,30,05,55,9.00
2006,09,30,05,56,9.00
2006,09,30,05,57,9.00
2006,09,30,05,58,8.90
2006,09,30,05,59,8.90
2006,09,30,06,00,8.90
2006,09,30,06,01,8.90
2006,09,30,06,02,8.80
2006,09,30,06,03,8.80
2006,09,30,06,04,8.80
2006,09,30,06,05,8.80
2006,09,30,06,06,8.70
2006,09,30,06,07,8.70
2006,09,30,06,08,8.70
2006,09,30,06,09,8.70
2006,09,30,06,10,8.70
2006,09,30,06,11,8.70
2006,09,30,06,12,8.70
2006,09,30,06,13,8.70
2006,09,30,06,14,8.60
2006,09,30,06,15,8.60
2006,09,30,06,16,8.60
2006,09,30,06,17,8.60
2006,09,30,06,18,8.60
2006,09,30,06,19,8.60
2006,09,30,06,20,8.60
2006,09,30,06,21,8.50
2006,09,30,06,22,8.50
2006,09,30,06,23,8.50
2006,09,30,06,24,8.50
2006,09,30,06,25,8.50
2006,09,30,06,26,8.50
2006,09,30,06,27,8.50
2006,09,30,06,28,8.40
2006,09,30,06,29,8.40
2006,09,30,06,30,8.40
2006,09,30,06,31,8.40
2006,09,30,06,32,8.40
2006,09,30,06,33,8.40
2006,09,30,06,34,8.40
2006,09,30,06,35,8.30
2006,09,30,06,36,8.30
2006,09,30,06,37,8.30
2006,09,30,06,38,8.30
2006,09,30,06,39,8.30
2006,09,30,06,40,8.30
2006,09,30,06,41,8.30
2006,09,30,06,42,8.30
2006,09,30,06,43,8.30
2006,09,30,06,44,8.30
2006,09,30,06,45,8.30
2006,09,30,06,46,8.30
2006,09,30,06,47,8.20
2006,09,30,06,48,8.20
2006,09,30,06,49,8.20
2006,09,30,06,50,8.20
2006,09,30,06,51,8.20
2006,09,30,06,52,8.20
2006,09,30,06,53,8.20
2006,09,30,06,54,8.20
2006,09,30,06,55,8.20
2006,09,30,06,56,8.20
2006,09,30,06,57,8.20
2006,09,30,06,58,8.20
2006,09,30,06,59,8.20
2006,09,30,07,00,8.20
2006,09,30,07,01,8.20
2006,09,30,07,02,8.20
2006,09,30,07,03,8.10
2006,09,30,07,04,8.10
2006,09,30,07,05,8.10
2006,09,30,07,06,8.10
2006,09,30,07,07,8.10
2006,09,30,07,08,8.10
2006,09,30,07,09,8.10
2006,09,30,07,10,8.10
2006,09,30,07,11,8.10
2006,09,30,07,12,8.10
2006,09,30,07,13,8.10
2006,09,30,07,14,8.10
2006,09,30,07,15,8.10
2006,09,30,07,16,8.10
2006,09,30,07,17,8.10
2006,09,30,07,18,8.10
2006,09,30,07,19,8.10
2006,09,30,07,20,8.10
2006,09,30,07,21,8.10
2006,09,30,07,22,8.10
2006,09,30,07,23,8.10
2006,09,30,07,24,8.10
2006,09,30,07,25,8.10
2006,09,30,07,26,8.10
2006,09,30,07,27,8.10
2006,09,30,07,28,8.10
2006,09,30,07,29,8.20
2006,09,30,07,30,8.20
2006,09,30,07,31,8.20
2006,09,30,07,32,8.20
2006,09,30,07,33,8.20
2006,09,30,07,34,8.20
2006,09,30,07,35,8.20
2006,09,30,07,36,8.20
2006,09,30,07,37,8.20
2006,09,30,07,38,8.20
2006,09,30,07,39,8.30
2006,09,30,07,40,8.30
2006,09,30,07,41,8.30
2006,09,30,07,42,8.30
2006,09,30,07,43,8.40
2006,09,30,07,44,8.40
2006,09,30,07,45,8.40
2006,09,30,07,46,8.40
2006,09,30,07,47,8.40
2006,09,30,07,48,8.40
2006,09,30,07,49,8.40
2006,09,30,07,50,8.40
2006,09,30,07,51,8.40
2006,09,30,07,52,8.40
2006,09,30,07,53,8.40
2006,09,30,07,54,8.40
2006,09,30,07,55,8.40
2006,09,30,07,56,8.40
2006,09,30,07,57,8.40
2006,09,30,07,58,8.40
2006,09,30,07,59,8.50
2006,09,30,08,00,8.50
2006,09,30,08,01,8.50
2006,09,30,08,02,8.50
2006,09,30,08,03,8.60
2006,09,30,08,04,8.60
2006,09,30,08,05,8.70
2006,09,30,08,06,8.70
2006,09,30,08,07,8.80
2006,09,30,08,08,8.90
2006,09,30,08,09,8.90
2006,09,30,08,10,9.00
2006,09,30,08,11,9.00
2006,09,30,08,12,9.10
2006,09,30,08,13,9.10
2006,09,30,08,14,9.20
2006,09,30,08,15,9.20
2006,09,30,08,16,9.20
2006,09,30,08,17,9.20
2006,09,30,08,18,9.30
2006,09,30,08,19,9.30
2006,09,30,08,20,9.40
2006,09,30,08,21,9.40
2006,09,30,08,22,9.50
2006,09,30,08,23,9.60
2006,09,30,08,24,9.60
2006,09,30,08,25,9.70
2006,09,30,08,26,9.70
2006,09,30,08,27,9.80
2006,09,30,08,28,9.80
2006,09,30,08,29,9.90
2006,09,30,08,30,9.90
2006,09,30,08,31,9.90
2006,09,30,08,32,10.10
2006,09,30,08,33,10.10
2006,09,30,08,34,10.10
2006,09,30,08,35,10.10
2006,09,30,08,36,10.10
2006,09,30,08,37,10.20
2006,09,30,08,38,10.20
2006,09,30,08,39,10.30
2006,09,30,08,40,10.30
2006,09,30,08,41,10.40
2006,09,30,08,42,10.40
2006,09,30,08,43,10.40
2006,09,30,08,44,10.50
2006,09,30,08,45,10.60
2006,09,30,08,46,10.60
2006,09,30,08,47,10.60
2006,09,30,08,48,10.60
2006,09,30,08,49,10.70
2006,09,30,08,50,10.70
2006,09,30,08,51,10.70
2006,09,30,08,52,10.80
2006,09,30,08,53,10.80
2006,09,30,08,54,10.90
2006,09,30,08,55,10.90
2006,09,30,08,56,10.90
2006,09,30,08,57,10.90
2006,09,30,08,58,10.90
2006,09,30,08,59,11.10
2006,09,30,09,00,11.10
2006,09,30,09,01,11.10
2006,09,30,09,02,11.10
2006,09,30,09,03,11.10
2006,09,30,09,04,11.10
2006,09,30,09,05,11.20
2006,09,30,09,06,11.20
2006,09,30,09,07,11.20
2006,09,30,09,08,11.30
2006,09,30,09,09,11.30
2006,09,30,09,10,11.30
2006,09,30,09,11,11.40
2006,09,30,09,12,11.40
2006,09,30,09,13,11.40
2006,09,30,09,14,11.40
2006,09,30,09,15,11.40
2006,09,30,09,16,11.40
2006,09,30,09,17,11.50
2006,09,30,09,18,11.60
2006,09,30,09,19,11.60
2006,09,30,09,20,11.60
2006,09,30,09,21,11.60
2006,09,30,09,22,11.70
2006,09,30,09,23,11.70
2006,09,30,09,24,11.80
2006,09,30,09,25,11.80
2006,09,30,09,26,11.80
2006,09,30,09,27,11.80
2006,09,30,09,28,11.80
2006,09,30,09,29,11.90
2006,09,30,09,30,11.90
2006,09,30,09,31,12.00
2006,09,30,09,32,12.00
2006,09,30,09,33,12.00
2006,09,30,09,34,12.10
2006,09,30,09,35,12.10
2006,09,30,09,36,12.20
2006,09,30,09,37,12.20
2006,09,30,09,38,12.30
2006,09,30,09,39,12.30
2006,09,30,09,40,12.30
2006,09,30,09,41,12.30
2006,09,30,09,42,12.40
2006,09,30,09,43,12.40
2006,09,30,09,44,12.50
2006,09,30,09,45,12.50
2006,09,30,09,46,12.60
2006,09,30,09,47,12.60
2006,09,30,09,48,12.60
2006,09,30,09,49,12.70
2006,09,30,09,50,12.70
2006,09,30,09,51,12.80
2006,09,30,09,52,12.80
2006,09,30,09,53,12.80
2006,09,30,09,54,12.90
2006,09,30,09,55,12.90
2006,09,30,09,56,13.00
2006,09,30,09,57,13.00
2006,09,30,09,58,13.00
2006,09,30,09,59,13.10
2006,09,30,10,00,13.10
2006,09,30,10,01,13.10
2006,09,30,10,02,13.20
2006,09,30,10,03,13.20
2006,09,30,10,04,13.20
2006,09,30,10,05,13.30
2006,09,30,10,06,13.30
2006,09,30,10,07,13.30
2006,09,30,10,08,13.30
2006,09,30,10,09,13.30
2006,09,30,10,10,13.40
2006,09,30,10,11,13.40
2006,09,30,10,12,13.40
2006,09,30,10,13,13.50
2006,09,30,10,14,13.50
2006,09,30,10,15,13.50
2006,09,30,10,16,13.60
2006,09,30,10,17,13.60
2006,09,30,10,18,13.60
2006,09,30,10,19,13.70
2006,09,30,10,20,13.70
2006,09,30,10,21,13.70
2006,09,30,10,22,13.80
2006,09,30,10,23,13.80
2006,09,30,10,24,13.80
2006,09,30,10,25,13.90
2006,09,30,10,26,13.90
2006,09,30,10,27,13.90
2006,09,30,10,28,14.00
2006,09,30,10,29,14.00
2006,09,30,10,30,14.00
2006,09,30,10,31,14.00
2006,09,30,10,32,14.00
2006,09,30,10,33,14.10
2006,09,30,10,34,14.10
2006,09,30,10,35,14.10
2006,09,30,10,36,14.10
2006,09,30,10,37,14.20
2006,09,30,10,38,14.20
2006,09,30,10,39,14.20
2006,09,30,10,40,14.20
2006,09,30,10,41,14.20
2006,09,30,10,42,14.20
2006,09,30,10,43,14.30
2006,09,30,10,44,14.30
2006,09,30,10,45,14.30
2006,09,30,10,46,14.30
2006,09,30,10,47,14.30
2006,09,30,10,48,14.30
2006,09,30,10,49,14.20
2006,09,30,10,50,14.20
2006,09,30,10,51,14.20
2006,09,30,10,52,14.20
2006,09,30,10,53,14.20
2006,09,30,10,54,14.20
2006,09,30,10,55,14.20
2006,09,30,10,56,14.20
2006,09,30,10,57,14.20
2006,09,30,10,58,14.20
2006,09,30,10,59,14.20
2006,09,30,11,00,14.20
2006,09,30,11,01,14.20
2006,09,30,11,02,14.20
2006,09,30,11,03,14.20
2006,09,30,11,04,14.20
2006,09,30,11,05,14.20
2006,09,30,11,06,14.20
2006,09,30,11,07,14.20
2006,09,30,11,08,14.20
2006,09,30,11,09,14.20
2006,09,30,11,10,14.30
2006,09,30,11,11,14.30
2006,09,30,11,12,14.30
2006,09,30,11,13,14.40
2006,09,30,11,14,14.40
2006,09,30,11,15,14.40
2006,09,30,11,16,14.50
2006,09,30,11,17,14.50
2006,09,30,11,18,14.60
2006,09,30,11,19,14.60
2006,09,30,11,20,14.60
2006,09,30,11,21,14.60
2006,09,30,11,22,14.60
2006,09,30,11,23,14.60
2006,09,30,11,24,14.60
2006,09,30,11,25,14.60
2006,09,30,11,26,14.60
2006,09,30,11,27,14.70
2006,09,30,11,28,14.70
2006,09,30,11,29,14.80
2006,09,30,11,30,14.90
2006,09,30,11,31,15.00
2006,09,30,11,32,15.00
2006,09,30,11,33,15.10
2006,09,30,11,34,15.20
2006,09,30,11,35,15.30
2006,09,30,11,36,15.30
2006,09,30,11,37,15.40
2006,09,30,11,38,15.50
2006,09,30,11,39,15.50
2006,09,30,11,40,15.50
2006,09,30,11,41,15.50
2006,09,30,11,42,15.50
2006,09,30,11,43,15.50
2006,09,30,11,44,15.50
2006,09,30,11,45,15.50
2006,09,30,11,46,15.50
2006,09,30,11,47,15.50
2006,09,30,11,48,15.50
2006,09,30,11,49,15.50
2006,09,30,11,50,15.50
2006,09,30,11,51,15.50
2006,09,30,11,52,15.60
2006,09,30,11,53,15.60
2006,09,30,11,54,15.60
2006,09,30,11,55,15.70
2006,09,30,11,56,15.70
2006,09,30,11,57,15.70
2006,09,30,11,58,15.80
2006,09,30,11,59,15.80
2006,09,30,12,00,15.70
2006,09,30,12,01,15.70
2006,09,30,12,02,15.70
2006,09,30,12,03,15.70
2006,09,30,12,04,15.70
2006,09,30,12,05,15.70
2006,09,30,12,06,15.80
2006,09,30,12,07,15.80
2006,09,30,12,08,15.80
2006,09,30,12,09,15.90
2006,09,30,12,10,16.00
2006,09,30,12,11,16.10
2006,09,30,12,12,16.10
2006,09,30,12,13,16.20
2006,09,30,12,14,16.30
2006,09,30,12,15,16.30
2006,09,30,12,16,16.40
2006,09,30,12,17,16.40
2006,09,30,12,18,16.50
2006,09,30,12,19,16.60
2006,09,30,12,20,16.60
2006,09,30,12,21,16.70
2006,09,30,12,22,16.70
2006,09,30,12,23,16.80
2006,09,30,12,24,16.90
2006,09,30,12,25,17.00
2006,09,30,12,26,17.20
2006,09,30,12,27,17.30
2006,09,30,12,28,17.50
2006,09,30,12,29,17.50
2006,09,30,12,30,17.40
2006,09,30,12,31,17.30
2006,09,30,12,32,17.20
2006,09,30,12,33,17.10
2006,09,30,12,34,17.10
2006,09,30,12,35,17.00
2006,09,30,12,36,17.00
2006,09,30,12,37,16.90
2006,09,30,12,38,16.90
2006,09,30,12,39,16.90
2006,09,30,12,40,16.90
2006,09,30,12,41,16.90
2006,09,30,12,42,16.90
2006,09,30,12,43,16.80
2006,09,30,12,44,16.70
2006,09,30,12,45,16.70
2006,09,30,12,46,16.70
2006,09,30,12,47,16.70
2006,09,30,12,48,16.70
2006,09,30,12,49,16.70
2006,09,30,12,50,16.70
2006,09,30,12,51,16.70
2006,09,30,12,52,16.70
2006,09,30,12,53,16.70
2006,09,30,12,54,16.70
2006,09,30,12,55,16.70
2006,09,30,12,56,16.70
2006,09,30,12,57,16.70
2006,09,30,12,58,16.70
2006,09,30,12,59,16.70
2006,09,30,13,00,16.70
2006,09,30,13,01,16.70
2006,09,30,13,02,16.70
2006,09,30,13,03,16.80
2006,09,30,13,04,16.80
2006,09,30,13,05,16.80
2006,09,30,13,06,16.90
2006,09,30,13,07,16.90
2006,09,30,13,08,16.80
2006,09,30,13,09,16.80
2006,09,30,13,10,16.80
2006,09,30,13,11,16.80
2006,09,30,13,12,16.80
2006,09,30,13,13,16.80
2006,09,30,13,14,16.80
2006,09,30,13,15,16.80
2006,09,30,13,16,16.80
2006,09,30,13,17,16.80
2006,09,30,13,18,16.80
2006,09,30,13,19,16.90
2006,09,30,13,20,16.90
2006,09,30,13,21,16.90
2006,09,30,13,22,16.90
2006,09,30,13,23,16.90
2006,09,30,13,24,16.80
2006,09,30,13,25,16.70
2006,09,30,13,26,16.70
2006,09,30,13,27,16.80
2006,09,30,13,28,16.80
2006,09,30,13,29,16.90
2006,09,30,13,30,17.00
2006,09,30,13,31,17.00
2006,09,30,13,32,17.00
2006,09,30,13,33,17.00
2006,09,30,13,34,17.00
2006,09,30,13,35,17.00
2006,09,30,13,36,17.00
2006,09,30,13,37,17.00
2006,09,30,13,38,17.00
2006,09,30,13,39,17.00
2006,09,30,13,40,17.00
2006,09,30,13,41,17.00
2006,09,30,13,42,16.90
2006,09,30,13,43,16.90
2006,09,30,13,44,16.90
2006,09,30,13,45,16.90
2006,09,30,13,46,16.90
2006,09,30,13,47,16.90
2006,09,30,13,48,17.00
2006,09,30,13,49,17.10
2006,09,30,13,50,17.10
2006,09,30,13,51,17.20
2006,09,30,13,52,17.20
2006,09,30,13,53,17.10
2006,09,30,13,54,17.00
2006,09,30,13,55,16.90
2006,09,30,13,56,16.90
2006,09,30,13,57,16.80
2006,09,30,13,58,16.80
2006,09,30,13,59,16.80
2006,09,30,14,00,16.80
2006,09,30,14,01,16.70
2006,09,30,14,02,16.70
2006,09,30,14,03,16.60
2006,09,30,14,04,16.60
2006,09,30,14,05,16.70
2006,09,30,14,06,16.70
2006,09,30,14,07,16.80
2006,09,30,14,08,16.80
2006,09,30,14,09,16.80
2006,09,30,14,10,16.90
2006,09,30,14,11,17.00
2006,09,30,14,12,17.00
2006,09,30,14,13,17.10
2006,09,30,14,14,17.10
2006,09,30,14,15,17.20
2006,09,30,14,16,17.20
2006,09,30,14,17,17.20
2006,09,30,14,18,17.20
2006,09,30,14,19,17.30
2006,09,30,14,20,17.30
2006,09,30,14,21,17.30
2006,09,30,14,22,17.30
2006,09,30,14,23,17.30
2006,09,30,14,24,17.30
2006,09,30,14,25,17.30
2006,09,30,14,26,17.40
2006,09,30,14,27,17.40
2006,09,30,14,28,17.40
2006,09,30,14,29,17.30
2006,09,30,14,30,17.20
2006,09,30,14,31,17.00
2006,09,30,14,32,17.00
2006,09,30,14,33,16.90
2006,09,30,14,34,16.80
2006,09,30,14,35,16.70
2006,09,30,14,36,16.70
2006,09,30,14,37,16.70
2006,09,30,14,38,16.70
2006,09,30,14,39,16.70
2006,09,30,14,40,16.70
2006,09,30,14,41,16.80
2006,09,30,14,42,16.90
2006,09,30,14,43,17.10
2006,09,30,14,44,17.20
2006,09,30,14,45,17.30
2006,09,30,14,46,17.40
2006,09,30,14,47,17.40
2006,09,30,14,48,17.50
2006,09,30,14,49,17.50
2006,09,30,14,50,17.50
2006,09,30,14,51,17.50
2006,09,30,14,52,17.50
2006,09,30,14,53,17.50
2006,09,30,14,54,17.60
2006,09,30,14,55,17.70
2006,09,30,14,56,17.80
2006,09,30,14,57,17.80
2006,09,30,14,58,17.90
2006,09,30,14,59,18.00
2006,09,30,15,00,18.10
2006,09,30,15,01,18.20
2006,09,30,15,02,18.20
2006,09,30,15,03,18.20
2006,09,30,15,04,18.30
2006,09,30,15,05,18.20
2006,09,30,15,06,18.20
2006,09,30,15,07,18.10
2006,09,30,15,08,18.10
2006,09,30,15,09,18.00
2006,09,30,15,10,17.90
2006,09,30,15,11,17.80
2006,09,30,15,12,17.70
2006,09,30,15,13,17.50
2006,09,30,15,14,17.40
2006,09,30,15,15,17.40
2006,09,30,15,16,17.40
2006,09,30,15,17,17.40
2006,09,30,15,18,17.40
2006,09,30,15,19,17.30
2006,09,30,15,20,17.30
2006,09,30,15,21,17.30
2006,09,30,15,22,17.30
2006,09,30,15,23,17.30
2006,09,30,15,24,17.40
2006,09,30,15,25,17.50
2006,09,30,15,26,17.50
2006,09,30,15,27,17.60
2006,09,30,15,28,17.70
2006,09,30,15,29,17.80
2006,09,30,15,30,17.90
2006,09,30,15,31,18.00
2006,09,30,15,32,18.10
2006,09,30,15,33,18.20
2006,09,30,15,34,18.20
2006,09,30,15,35,18.20
2006,09,30,15,36,18.30
2006,09,30,15,37,18.30
2006,09,30,15,38,18.30
2006,09,30,15,39,18.30
2006,09,30,15,40,18.30
2006,09,30,15,41,18.30
2006,09,30,15,42,18.30
2006,09,30,15,43,18.30
2006,09,30,15,44,18.20
2006,09,30,15,45,18.20
2006,09,30,15,46,18.20
2006,09,30,15,47,18.20
2006,09,30,15,48,18.10
2006,09,30,15,49,18.00
2006,09,30,15,50,17.90
2006,09,30,15,51,17.80
2006,09,30,15,52,17.80
2006,09,30,15,53,17.80
2006,09,30,15,54,17.80
2006,09,30,15,55,17.90
2006,09,30,15,56,17.90
2006,09,30,15,57,17.90
2006,09,30,15,58,17.90
2006,09,30,15,59,17.90
2006,09,30,16,00,17.90
2006,09,30,16,01,17.90
2006,09,30,16,02,17.90
2006,09,30,16,03,17.90
2006,09,30,16,04,17.90
2006,09,30,16,05,17.80
2006,09,30,16,06,17.80
2006,09,30,16,07,17.80
2006,09,30,16,08,17.70
2006,09,30,16,09,17.70
2006,09,30,16,10,17.60
2006,09,30,16,11,17.60
2006,09,30,16,12,17.60
2006,09,30,16,13,17.60
2006,09,30,16,14,17.50
2006,09,30,16,15,17.50
2006,09,30,16,16,17.50
2006,09,30,16,17,17.50
2006,09,30,16,18,17.50
2006,09,30,16,19,17.40
2006,09,30,16,20,17.40
2006,09,30,16,21,17.40
2006,09,30,16,22,17.40
2006,09,30,16,23,17.40
2006,09,30,16,24,17.40
2006,09,30,16,25,17.40
2006,09,30,16,26,17.40
2006,09,30,16,27,17.30
2006,09,30,16,28,17.30
2006,09,30,16,29,17.30
2006,09,30,16,30,17.30
2006,09,30,16,31,17.30
2006,09,30,16,32,17.30
2006,09,30,16,33,17.30
2006,09,30,16,34,17.30
2006,09,30,16,35,17.30
2006,09,30,16,36,17.30
2006,09,30,16,37,17.30
2006,09,30,16,38,17.20
2006,09,30,16,39,17.20
2006,09,30,16,40,17.20
2006,09,30,16,41,17.20
2006,09,30,16,42,17.10
2006,09,30,16,43,17.10
2006,09,30,16,44,17.10
2006,09,30,16,45,17.10
2006,09,30,16,46,17.00
2006,09,30,16,47,17.00
2006,09,30,16,48,17.00
2006,09,30,16,49,16.90
2006,09,30,16,50,16.90
2006,09,30,16,51,16.90
2006,09,30,16,52,16.80
2006,09,30,16,53,16.80
2006,09,30,16,54,16.70
2006,09,30,16,55,16.70
2006,09,30,16,56,16.70
2006,09,30,16,57,16.70
2006,09,30,16,58,16.70
2006,09,30,16,59,16.70
2006,09,30,17,00,16.70
2006,09,30,17,01,16.70
2006,09,30,17,02,16.70
2006,09,30,17,03,16.80
2006,09,30,17,04,16.80
2006,09,30,17,05,16.70
2006,09,30,17,06,16.70
2006,09,30,17,07,16.70
2006,09,30,17,08,16.70
2006,09,30,17,09,16.70
2006,09,30,17,10,16.70
2006,09,30,17,11,16.70
2006,09,30,17,12,16.70
2006,09,30,17,13,16.70
2006,09,30,17,14,16.70
2006,09,30,17,15,16.70
2006,09,30,17,16,16.70
2006,09,30,17,17,16.70
2006,09,30,17,18,16.70
2006,09,30,17,19,16.70
2006,09,30,17,20,16.70
2006,09,30,17,21,16.70
2006,09,30,17,22,16.70
2006,09,30,17,23,16.60
2006,09,30,17,24,16.60
2006,09,30,17,25,16.60
2006,09,30,17,26,16.50
2006,09,30,17,27,16.40
2006,09,30,17,28,16.40
2006,09,30,17,29,16.40
2006,09,30,17,30,16.40
2006,09,30,17,31,16.40
2006,09,30,17,32,16.40
2006,09,30,17,33,16.40
2006,09,30,17,34,16.40
2006,09,30,17,35,16.40
2006,09,30,17,36,16.40